Home > Weather > Baker Island > Past weeks

Flag for US Minor Outlying Islands Weather for the Past 2 Weeks in Baker Island, US Minor Outlying Islands

Now
90 °F

Broken clouds.


Feels Like: 108 °F
Forecast: 83 / 88 °F
Wind: 2 mph from North

Location: Funafuti

Current Time: Feb 11, 2016 at 2:39:14 PM

Latest Report: Feb 11, 2016 at 2:00 PM


Visibility: N/A

Pressure: 29.71 "Hg

Humidity: 75%

Dew point: 81 °F

Location of Baker IslandLocation

Historic Weather in Baker Island — Graph

°F

Baker Island Temperature Yesterday

Maximum temperature yesterday: 90 °F (at 1:00 PM)
Minimum temperature yesterday: 79 °F (at 3:00 AM)
Average temperature yesterday: 85 °F

High & Low Weather Summary for the Past Weeks

 TemperatureHumidityPressure
High93 °F (Jan 27, 3:00 PM)100% (Feb 10, 3:00 AM)29.89 "Hg (Feb 10, 3:00 AM)
Low79 °F (Feb 1, 2:00 AM)63% (Jan 30, 3:00 PM)29.62 "Hg (Feb 4, 2:00 AM)
Average85 °F82%29.75 "Hg
* Reported Jan 27 1:00 PM — Feb 11 1:00 PM, Baker Island, Weather by CustomWeather, © 2016

Note: Actual official high and low records may vary slightly from our data, if they occured in-between our weather recording intervals... More about our weather records

Advertising

Baker Island Weather History for the Previous 24 Hours

 ConditionsComfort  
Time TempWeatherWind HumidityBarometerVisibility
1:00 PM
Thu, Feb 11
90 °FBroken clouds.2 mph79%29.74 "HgN/A
12:00 PM90 °FScattered showers. Broken clouds.3 mph79%29.74 "HgN/A
11:00 AM88 °FBroken clouds.2 mph75%29.77 "HgN/A
10:00 AM88 °FBroken clouds.3 mph79%29.74 "HgN/A
9:00 AM88 °FScattered showers. Broken clouds.3 mph79%29.80 "HgN/A
8:00 AM86 °FBroken clouds.3 mph84%29.77 "HgN/A
7:00 AM84 °FScattered clouds.2 mph84%29.77 "HgN/A
6:00 AM84 °FPassing clouds.2 mph89%29.74 "HgN/A
4:00 AM84 °FPassing clouds.3 mph84%29.71 "HgN/A
3:00 AM84 °FPassing clouds.3 mph89%29.74 "HgN/A
2:00 AM84 °FPartly cloudy.3 mph84%29.74 "HgN/A
1:00 AM84 °FPassing clouds.2 mph84%29.77 "HgN/A
12:00 AM84 °FPassing clouds.1 mph84%29.80 "HgN/A
11:00 PM
Wed, Feb 10
84 °FPassing clouds.7 mph84%29.80 "HgN/A
10:00 PM84 °FPassing clouds.5 mph84%29.80 "HgN/A
9:00 PM84 °FPassing clouds.5 mph84%29.80 "HgN/A
8:00 PM86 °FPassing clouds.3 mph79%29.77 "HgN/A
7:00 PM86 °FPassing clouds.2 mph79%29.74 "HgN/A
6:00 PM88 °FPassing clouds.2 mph79%29.74 "HgN/A
5:00 PM90 °FPartly sunny.2 mph75%29.71 "HgN/A
4:00 PM90 °FPartly sunny.2 mph71%29.71 "HgN/A
3:00 PM90 °FPartly sunny.2 mph75%29.71 "HgN/A
2:00 PM88 °FPartly sunny.1 mph79%29.71 "HgN/A
Weather by CustomWeather, © 2016

See weather overviewHow to use our weather pages